User: anonymous   Login
Location: Brabourne
(51.1333°N, 1.0000°E)
Time: 15:39:04
(UTC+00:00)
Language:

ATLAS 3B R/B - Orbit

View from above orbital plane
View from above orbital plane
View from above satellite
View from above satellite

Ground track
Ground track

The orbit data is extracted from the following two-line orbital elements,

1 28538U 05004B   21252.08900390 0.00000040  00000-0  66501-4 0    05
2 28538  63.8280   2.5353 0128816   5.3500 354.6500 13.43148192    01
Epoch (UTC): 09 September 2021 02:08:09
Eccentricity: 0.0128816
inclination: 63.8280°
perigee height: 1001 km
apogee height: 1194 km
right ascension of ascending node: 2.5353°
argument of perigee: 5.3500°
revolutions per day: 13.43148192
mean anomaly at epoch: 354.6500°
orbit number at epoch: 0

The dashed part of the orbit path shows where the satellite is in the earth's shadow,  

DLR